This is the latest recevied weather packets stored in our database for station/object KC9NPJ-13. If no packets are shown the sender has not sent any weather packets the latest 10 day(s).
| Time | Temp. | Humidity | Pressure | Rain* | Wind** | Luminosity | Snow |
|---|---|---|---|---|---|---|---|
| 1777307976 | 18.89° C | 89% | 1008.7 hPa | 0.25 mm | - | - | - |
| 1777307675 | 18.89° C | 89% | 1008.3 hPa | 0.25 mm | - | - | - |
| 1777307376 | 18.89° C | 89% | 1008.3 hPa | 0.25 mm | - | - | - |
| 1777307075 | 18.33° C | 89% | 1008.4 hPa | 0.25 mm | - | - | - |
| 1777306776 | 18.33° C | 90% | 1008.8 hPa | 0.25 mm | - | - | - |
| 1777306476 | 17.78° C | 92% | 1009.1 hPa | 0.76 mm | - | - | - |
| 1777306176 | 17.22° C | 92% | 1009.6 hPa | 1.02 mm | - | - | - |
| 1777305876 | 16.67° C | 91% | 1009.7 hPa | 1.02 mm | - | - | - |
| 1777305576 | 16.67° C | 91% | 1009.9 hPa | 0.76 mm | - | - | - |
| 1777305276 | 16.67° C | 91% | 1009.8 hPa | 0.76 mm | - | - | - |
| 1777304976 | 16.67° C | 90% | 1009.5 hPa | 1.27 mm | - | - | - |
| 1777304676 | 16.67° C | 90% | 1009.6 hPa | 1.78 mm | - | - | - |
| 1777304376 | 16.67° C | 90% | 1010 hPa | 4.83 mm | - | - | - |
| 1777304076 | 16.67° C | 90% | 1010.4 hPa | 5.59 mm | - | - | - |
| 1777303776 | 16.67° C | 89% | 1010.3 hPa | 5.59 mm | - | - | - |
| 1777303476 | 16.67° C | 89% | 1010 hPa | 5.59 mm | - | - | - |
| 1777303176 | 16.67° C | 90% | 1010 hPa | 5.59 mm | - | - | - |
| 1777302876 | 16.67° C | 89% | 1010.3 hPa | 5.08 mm | - | - | - |
| 1777302576 | 17.22° C | 89% | 1010.6 hPa | 4.83 mm | - | - | - |
| 1777302276 | 16.67° C | 89% | 1010.8 hPa | 5.08 mm | - | - | - |
| 1777301976 | 17.22° C | 89% | 1010.6 hPa | 5.08 mm | - | - | - |
| 1777301676 | 17.22° C | 89% | 1010.8 hPa | 5.08 mm | - | - | - |
| 1777301376 | 17.22° C | 88% | 1010.3 hPa | 4.57 mm | - | - | - |
| 1777301076 | 17.22° C | 87% | 1010.6 hPa | 4.06 mm | - | - | - |
| 1777300776 | 17.78° C | 86% | 1010.4 hPa | 1.02 mm | - | - | - |
* Rain latest hour (hover to see other rain measurements)
** Current wind speed in m/s (hover to see current wind gust speed)